[[{"header":{"parameterUnit":"m.s-1","parameterCategory":2,"la1":30.2991,"la2":30.254,"lo1":-89.0895,"lo2":-89.0444,"dy":0.0017,"dx":0.0017,"nx":28,"ny":28,"refTime":"2024-04-20T09:00:00:Z","depth":"0","parameterNumber":2,"parameterNumberName":"U-component_of_CURRENTS"},"data":[0,0,0,0,0,0,0,0,0,0,0,0,0,0,0,0,0,0,0,0,0,0,0,0,0,0,0,0,0,0,0,0,0,0,0,0,0,0,0,0,0,0,0,0,0,0,0,0,0,0,0,0,0,0,0,0,0,0,0.1825,0.1824,0,0.1811,0.1811,0.1811,0.1781,0.178,0.178,0.178,0.1735,0.1734,0.1733,0,0,0,0,0,0,0,0,0,0,0,0,0,0.1818,0.1819,0.1825,0.1824,0.1824,0.1811,0.1811,0.181,0.1781,0.178,0.178,0.1779,0.1735,0.1734,0.1733,0,0,0,0,0,0,0,0,0,0,0,0,0,0.1813,0.1819,0.1825,0.1809,0.1808,0.1811,0.1811,0.181,0.1781,0.178,0.178,0.1779,0.1735,0.1734,0.1733,0.174,0,0,0.173,0.1729,0,0,0,0,0,0,0,0,0.1814,0.1813,0.1812,0.181,0.1809,0.1798,0.1792,0.1786,0.1781,0.179,0.178,0.1779,0.1755,0.1752,0.1749,0.1738,0.1736,0.1729,0.1729,0.1728,0.1728,0,0,0,0,0,0,0,0.1814,0.1814,0.1818,0.1812,0.181,0.1801,0.1799,0.1791,0.1774,0.1789,0.1787,0.1788,0.1753,0.175,0.1748,0.1735,0.173,0.1729,0.1728,0.1727,0.1744,0.1745,0,0,0,0,0,0,0.182,0.1814,0.1818,0.1817,0.1811,0.1802,0.18,0.1801,0.1775,0.1771,0.1789,0.1787,0.1753,0.1749,0.1746,0.1776,0.1728,0.1727,0.1727,0.1743,0.1744,0.1745,0,0,0,0,0,0,0.182,0.182,0.1819,0.1817,0.1816,0.1803,0.1804,0.1801,0.1796,0.1776,0.1771,0.1787,0.1752,0.1748,0.1754,0.1772,0.1727,0.1726,0.1741,0.1743,0.1745,0.182,0,0,0,0,0,0,0.182,0.182,0.182,0.1817,0.1816,0.1825,0.1805,0.1802,0.1799,0.1796,0.1772,0.1768,0.1751,0.1756,0.1753,0.177,0.1725,0.174,0.1742,0.1744,0.1816,0.1824,0.183,0,0,0,0,0,0.182,0.1823,0.1821,0.1821,0.1818,0.1825,0.1824,0.1811,0.1799,0.1802,0.1796,0.1768,0.1766,0.1756,0.1752,0.177,0.1739,0.1742,0.1744,0.1812,0.1822,0.183,0,0,0,0,0,0,0.182,0.182,0.1817,0.182,0.1825,0.1821,0.1826,0.1815,0.1811,0.1812,0.1785,0.1781,0.1789,0.1772,0.1762,0.1781,0.1747,0.1749,0.18,0.1809,0.1816,0.1804,0.1724,0,0,0,0,0,0.1822,0.1827,0.1827,0.1834,0.1838,0.1833,0.1833,0.1828,0.1826,0.1823,0.1806,0.1797,0.1798,0.1798,0.1789,0.1804,0.1788,0.1811,0.1819,0.1825,0.1813,0.1825,0.1832,0.1754,0.1754,0.1753,0,0,0.1824,0.1828,0.1829,0.1835,0.184,0.1846,0.1831,0.1842,0.1849,0.182,0.1824,0.1817,0.1806,0.1823,0.1825,0.1812,0.1843,0.1828,0.1834,0.1818,0.1828,0.1836,0.1843,0.1755,0.1755,0.1755,0,0,0.1829,0.1839,0.1839,0.1847,0.1858,0.1864,0.1867,0.1866,0.1868,0.1877,0.1863,0.1871,0.1861,0.1865,0.1865,0.1907,0.1877,0.1905,0.1937,0.195,0.1957,0.1962,0.1967,0.1972,0.1914,0.1914,0.1914,0,0.1827,0.1829,0.1842,0.1847,0.1854,0.1872,0.1873,0.189,0.1889,0.1892,0.1885,0.1885,0.188,0.1906,0.1926,0.1923,0.1921,0.1907,0.196,0.1965,0.1969,0.1972,0.1977,0.1918,0.1918,0.1917,0.1917,0,0.1827,0.1831,0.1841,0.1853,0.1865,0.188,0.1903,0.1915,0.1921,0.1926,0.1945,0.195,0.1945,0.1959,0.1956,0.199,0.1977,0.1966,0.1938,0.1982,0.1983,0.1986,0.1924,0.1922,0.1921,0.192,0,0,0.1803,0.183,0.183,0.1836,0.1869,0.1878,0.1911,0.1932,0.1943,0.1963,0.197,0.2,0.2,0.2,0.2008,0.2029,0.2073,0.2017,0.2016,0.2022,0.21,0.2038,0.2035,0.2077,0.2077,0.2078,0.2094,0,0.1793,0.18,0.1816,0.1832,0.1841,0.1873,0.1896,0.1925,0.1949,0.1966,0.1998,0.201,0.2022,0.2026,0.2055,0.2062,0.2083,0.2069,0.2055,0.2054,0.1994,0.2037,0.2015,0.2023,0.2097,0.2098,0.2098,0,0.1774,0.1785,0.179,0.1819,0.1824,0.1837,0.1873,0.1896,0.1942,0.1958,0.1991,0.201,0.2057,0.2052,0.2101,0.2093,0.2098,0.2105,0.2106,0.2016,0.1997,0.1988,0.2026,0.2,0.2103,0.2103,0.2102,0,0.1746,0.1764,0.1769,0.178,0.1816,0.1821,0.1842,0.1885,0.1906,0.1953,0.1966,0.2023,0.2042,0.2076,0.2102,0.2105,0.2137,0.214,0.2088,0.2083,0.2042,0.2032,0.2047,0.2158,0.2158,0.2158,0.2158,0,0.1728,0.173,0.1755,0.1759,0.1767,0.1797,0.1811,0.184,0.188,0.1905,0.1959,0.1984,0.2048,0.2077,0.2103,0.2104,0.214,0.209,0.2084,0.2068,0.206,0.2014,0.1972,0.2159,0.2159,0.2158,0.2158,0,0.1695,0.1714,0.1722,0.1748,0.1755,0.1759,0.1791,0.1804,0.1844,0.1876,0.1892,0.1959,0.1997,0.2043,0.2087,0.2088,0.2054,0.2086,0.2057,0.2045,0.196,0.1922,0.186,0.1796,0.2039,0.2038,0.2036,0,0.1676,0.1678,0.1704,0.1708,0.1717,0.1729,0.1739,0.1782,0.1801,0.1859,0.1872,0.1916,0.1957,0.1995,0.2008,0.2032,0.1989,0.1992,0.1986,0.1947,0.1901,0.1871,0.182,0.1977,0.1975,0.1974,0.1973,0,0.1639,0.1652,0.166,0.167,0.1678,0.169,0.1707,0.1719,0.177,0.1805,0.1848,0.1886,0.192,0.1935,0.1938,0.1952,0.1917,0.1961,0.1944,0.186,0.1807,0.1745,0.197,0.1961,0.1962,0.1963,0.1964,0.1964,0.1603,0.1604,0.1616,0.1622,0.1634,0.164,0.1631,0.1667,0.1696,0.1733,0.1801,0.1847,0.1885,0.1897,0.1872,0.1828,0.1812,0.1818,0.178,0.1759,0.1672,0.1852,0.1813,0.1813,0.1813,0.1814,0.1814,0,0.1547,0.1557,0.1565,0.1567,0.156,0.1586,0.1597,0.1584,0.1601,0.1676,0.1721,0.1792,0.1806,0.1806,0.1756,0.1677,0.1659,0.1648,0.1632,0.1591,0.179,0.1763,0.1683,0.1683,0.1683,0.1683,0.1683,0.1683,0.1514,0.1503,0.1513,0.1488,0.149,0.1458,0.1454,0.1457,0.1494,0.1535,0.1583,0.1642,0.1676,0.1685,0.1608,0.1585,0.1478,0.1463,0.1411,0.1596,0.1611,0.1625,0.1594,0.148,0.1479,0.123,0.1228,0.1226]},{"header":{"parameterUnit":"m.s-1","parameterCategory":2,"la1":30.2991,"la2":30.254,"lo1":-89.0895,"lo2":-89.0444,"dy":0.0017,"dx":0.0017,"nx":28,"ny":28,"refTime":"2024-04-20T09:00:00:Z","depth":"0","parameterNumber":3,"parameterNumberName":"V-component_of_CURRENTS"},"data":[0,0,0,0,0,0,0,0,0,0,0,0,0,0,0,0,0,0,0,0,0,0,0,0,0,0,0,0,0,0,0,0,0,0,0,0,0,0,0,0,0,0,0,0,0,0,0,0,0,0,0,0,0,0,0,0,0,0,-0.0361,-0.0362,0,-0.0401,-0.0401,-0.0402,-0.0447,-0.0448,-0.0449,-0.0449,-0.0476,-0.0476,-0.0476,0,0,0,0,0,0,0,0,0,0,0,0,0,-0.0295,-0.0296,-0.0361,-0.0362,-0.0362,-0.0401,-0.0401,-0.0402,-0.0447,-0.0448,-0.0449,-0.045,-0.0476,-0.0476,-0.0476,0,0,0,0,0,0,0,0,0,0,0,0,0,-0.0328,-0.0297,-0.0361,-0.039,-0.0393,-0.0401,-0.0401,-0.0402,-0.0447,-0.0448,-0.0449,-0.045,-0.0476,-0.0476,-0.0476,-0.0453,0,0,-0.0476,-0.0476,0,0,0,0,0,0,0,0,-0.0326,-0.033,-0.0385,-0.0388,-0.0392,-0.0421,-0.0388,-0.0419,-0.0447,-0.0425,-0.0449,-0.0451,-0.0456,-0.0458,-0.0462,-0.0454,-0.0455,-0.0476,-0.0476,-0.0476,-0.0476,0,0,0,0,0,0,0,-0.0323,-0.0328,-0.0376,-0.0386,-0.039,-0.0391,-0.0397,-0.0394,-0.0433,-0.0427,-0.0431,-0.0437,-0.0458,-0.0462,-0.0463,-0.0456,-0.0476,-0.0476,-0.0476,-0.0476,-0.0451,-0.0451,0,0,0,0,0,0,-0.0321,-0.0326,-0.0375,-0.0377,-0.0362,-0.0392,-0.0399,-0.041,-0.0433,-0.0439,-0.0436,-0.0439,-0.0461,-0.0463,-0.0464,-0.0448,-0.0476,-0.0476,-0.0476,-0.0452,-0.0451,-0.045,0,0,0,0,0,0,-0.0319,-0.0325,-0.0373,-0.0353,-0.0359,-0.0392,-0.0404,-0.041,-0.041,-0.044,-0.0445,-0.0429,-0.0462,-0.0464,-0.0468,-0.0449,-0.0476,-0.0476,-0.0453,-0.0452,-0.0451,-0.041,0,0,0,0,0,0,-0.0317,-0.0324,-0.0321,-0.0353,-0.0361,-0.037,-0.0403,-0.041,-0.0412,-0.0417,-0.0436,-0.044,-0.0463,-0.0468,-0.0468,-0.045,-0.0476,-0.0453,-0.0452,-0.0451,-0.0412,-0.0407,-0.0403,0,0,0,0,0,-0.0315,-0.0308,-0.0321,-0.0326,-0.0359,-0.0369,-0.0372,-0.0399,-0.0411,-0.0404,-0.0428,-0.0439,-0.046,-0.0467,-0.0467,-0.0449,-0.0454,-0.0452,-0.0451,-0.0414,-0.0408,-0.0404,0,0,0,0,0,0,-0.0282,-0.0313,-0.0328,-0.0332,-0.0346,-0.0377,-0.0375,-0.0387,-0.0398,-0.0407,-0.0432,-0.0437,-0.0435,-0.0444,-0.0451,-0.0438,-0.0457,-0.0456,-0.0429,-0.0424,-0.042,-0.0405,-0.0476,0,0,0,0,0,-0.0271,-0.0271,-0.0304,-0.0303,-0.0313,-0.0338,-0.0342,-0.0361,-0.0381,-0.0387,-0.0398,-0.0414,-0.0427,-0.0428,-0.044,-0.0425,-0.0439,-0.0413,-0.0409,-0.0405,-0.0394,-0.0412,-0.0409,-0.0445,-0.0445,-0.0445,0,0,-0.0257,-0.0274,-0.0274,-0.0295,-0.0312,-0.0313,-0.0344,-0.0351,-0.0343,-0.0386,-0.0374,-0.0399,-0.0422,-0.0419,-0.0417,-0.0424,-0.0401,-0.0404,-0.04,-0.039,-0.0411,-0.0407,-0.0404,-0.0444,-0.0445,-0.0445,0,0,-0.0222,-0.0247,-0.0233,-0.0245,-0.0266,-0.0286,-0.0283,-0.0306,-0.0311,-0.0309,-0.0341,-0.0353,-0.0361,-0.0377,-0.0388,-0.036,-0.0383,-0.0361,-0.0323,-0.0342,-0.0339,-0.0337,-0.0346,-0.0345,-0.0355,-0.0355,-0.0355,0,-0.02,-0.0199,-0.0228,-0.0221,-0.0226,-0.027,-0.0256,-0.0266,-0.0282,-0.0278,-0.0301,-0.0322,-0.0342,-0.0341,-0.034,-0.0349,-0.0364,-0.0342,-0.0336,-0.0334,-0.0333,-0.0343,-0.0343,-0.0353,-0.0353,-0.0353,-0.0353,0,-0.016,-0.016,-0.0156,-0.0164,-0.0167,-0.0169,-0.0193,-0.0187,-0.0204,-0.0219,-0.022,-0.0258,-0.0269,-0.0278,-0.0304,-0.0295,-0.0311,-0.0334,-0.0349,-0.0327,-0.0339,-0.0339,-0.035,-0.035,-0.0351,-0.0352,0,0,-0.0115,-0.0123,-0.0122,-0.0117,-0.0141,-0.014,-0.0127,-0.0128,-0.0117,-0.0142,-0.0126,-0.0161,-0.0188,-0.02,-0.0231,-0.0248,-0.0254,-0.0281,-0.0283,-0.029,-0.029,-0.0308,-0.031,-0.0282,-0.0282,-0.0282,-0.0302,0,-0.0076,-0.0049,-0.0062,-0.0039,-0.0035,-0.0061,-0.0043,-0.0049,-0.0064,-0.006,-0.0102,-0.0111,-0.0157,-0.0166,-0.0189,-0.0238,-0.0253,-0.0246,-0.0311,-0.0312,-0.0331,-0.031,-0.0351,-0.0373,-0.0302,-0.0302,-0.0302,0,-0.0037,-0.0026,0.0008,0.0017,0.0018,0.0031,0.0044,0.0055,0.0043,0.0032,0.001,-0.0031,-0.0054,-0.0104,-0.0167,-0.0162,-0.0217,-0.026,-0.0262,-0.0291,-0.033,-0.0385,-0.0376,-0.0507,-0.0303,-0.0303,-0.0303,0,0.0,0.002,0.0051,0.0051,0.0057,0.0081,0.0086,0.0085,0.01,0.0089,0.009,0.0044,0.0024,-0.0046,-0.0138,-0.0153,-0.0213,-0.0247,-0.0311,-0.0313,-0.0364,-0.0371,-0.0489,-0.029,-0.0289,-0.0289,-0.0289,0,0.0034,0.0055,0.0071,0.0084,0.0125,0.012,0.0159,0.0162,0.0169,0.0183,0.0137,0.0136,0.0034,-0.0019,-0.0107,-0.0202,-0.0189,-0.0294,-0.0317,-0.035,-0.0355,-0.0486,-0.0541,-0.029,-0.029,-0.029,-0.029,0,0.0062,0.007,0.0103,0.0129,0.0141,0.017,0.0201,0.0225,0.0229,0.025,0.0249,0.0207,0.014,0.0039,-0.0071,-0.0157,-0.0327,-0.0289,-0.0314,-0.034,-0.0524,-0.0575,-0.0656,-0.0744,-0.0359,-0.0359,-0.036,0,0.0077,0.0099,0.0138,0.016,0.0173,0.0212,0.0239,0.0254,0.0279,0.0289,0.0303,0.0254,0.0213,0.006,-0.0097,-0.0239,-0.0351,-0.0369,-0.0407,-0.0531,-0.0605,-0.0616,-0.0686,-0.0459,-0.0461,-0.0462,-0.0462,0,0.0106,0.0122,0.015,0.0196,0.0231,0.0267,0.0306,0.0337,0.0354,0.037,0.0376,0.0347,0.0202,0.0038,-0.0147,-0.0259,-0.0471,-0.0393,-0.0525,-0.0689,-0.0705,-0.0802,-0.0442,-0.0471,-0.047,-0.047,-0.0469,-0.0469,0.0129,0.0152,0.0189,0.023,0.0271,0.0314,0.034,0.0379,0.0418,0.0426,0.0413,0.0349,0.0132,-0.0129,-0.0267,-0.0573,-0.0544,-0.0685,-0.0733,-0.0728,-0.0827,-0.0474,-0.0529,-0.0528,-0.0528,-0.0527,-0.0527,0,0.0146,0.0173,0.0216,0.0263,0.03,0.0317,0.0375,0.0392,0.0427,0.0415,0.04,0.0196,-0.0052,-0.0311,-0.0682,-0.0887,-0.0958,-0.1004,-0.1056,-0.1113,-0.0813,-0.0834,-0.0954,-0.0954,-0.0954,-0.0953,-0.0953,-0.0953,0.0156,0.0193,0.021,0.0269,0.0301,0.0332,0.0357,0.0389,0.0385,0.031,0.0202,0.0107,-0.0221,-0.0695,-0.1129,-0.1215,-0.1382,-0.1368,-0.1456,-0.1284,-0.1259,-0.1235,-0.127,-0.1479,-0.148,-0.1757,-0.176,-0.1762]}],[{"header":{"parameterUnit":"m.s-1","parameterCategory":2,"la1":30.2991,"la2":30.254,"lo1":-89.0895,"lo2":-89.0444,"dy":0.0017,"dx":0.0017,"nx":28,"ny":28,"refTime":"2024-04-20T09:00:00:Z","depth":"2","parameterNumber":2,"parameterNumberName":"U-component_of_CURRENTS"},"data":[0,0,0,0,0,0,0,0,0,0,0,0,0,0,0,0,0,0,0,0,0,0,0,0,0,0,0,0,0,0,0,0,0,0,0,0,0,0,0,0,0,0,0,0,0,0,0,0,0,0,0,0,0,0,0,0,0,0,0.1816,0.1816,0,0.1804,0.1804,0.1804,0.1777,0.1777,0.1776,0.1776,0.1733,0.1733,0.1732,0,0,0,0,0,0,0,0,0,0,0,0,0,0.1807,0.1807,0.1816,0.1816,0.1816,0.1804,0.1804,0.1804,0.1777,0.1777,0.1776,0.1776,0.1734,0.1733,0.1732,0,0,0,0,0,0,0,0,0,0,0,0,0,0.1803,0.1807,0.1816,0.1803,0.1802,0.1804,0.1804,0.1804,0.1777,0.1777,0.1776,0.1775,0.1734,0.1733,0.1732,0.1736,0,0,0.1728,0.1728,0,0,0,0,0,0,0,0,0.1803,0.1803,0.1805,0.1804,0.1802,0.1793,0.1785,0.178,0.1777,0.1785,0.1776,0.1775,0.1752,0.1749,0.1746,0.1734,0.1732,0.1728,0.1727,0.1727,0.1727,0,0,0,0,0,0,0,0.1804,0.1804,0.181,0.1805,0.1803,0.1795,0.1793,0.1784,0.177,0.1784,0.1782,0.1784,0.1751,0.1748,0.1745,0.1732,0.1728,0.1727,0.1726,0.1726,0.1741,0.1742,0,0,0,0,0,0,0.181,0.1804,0.181,0.1809,0.1803,0.1795,0.1794,0.1795,0.177,0.1767,0.1785,0.1783,0.175,0.1747,0.1744,0.1773,0.1727,0.1726,0.1725,0.174,0.1741,0.1743,0,0,0,0,0,0,0.181,0.1811,0.1811,0.1808,0.1807,0.1796,0.1798,0.1795,0.179,0.1772,0.1767,0.1782,0.1749,0.1745,0.1751,0.177,0.1725,0.1724,0.1739,0.1741,0.1742,0.1816,0,0,0,0,0,0,0.1809,0.1811,0.1811,0.1808,0.1808,0.1816,0.1799,0.1796,0.1793,0.1791,0.1768,0.1764,0.1748,0.1753,0.175,0.1768,0.1723,0.1737,0.174,0.1742,0.1812,0.182,0.1826,0,0,0,0,0,0.1809,0.1812,0.1811,0.1811,0.1809,0.1817,0.1816,0.1805,0.1794,0.1797,0.1791,0.1765,0.1764,0.1754,0.175,0.1767,0.1736,0.1739,0.1741,0.1809,0.1818,0.1826,0,0,0,0,0,0,0.1809,0.181,0.1808,0.1812,0.1817,0.1813,0.1818,0.1808,0.1805,0.1806,0.1781,0.1777,0.1786,0.1769,0.1758,0.1778,0.1745,0.1746,0.1797,0.1806,0.1813,0.1801,0.1722,0,0,0,0,0,0.181,0.1816,0.1817,0.1824,0.1829,0.1824,0.1824,0.182,0.1819,0.1816,0.18,0.1791,0.1794,0.1794,0.1785,0.18,0.1784,0.1808,0.1815,0.1821,0.1809,0.1822,0.1829,0.1751,0.1751,0.1751,0,0,0.1812,0.1817,0.1818,0.1824,0.183,0.1837,0.1823,0.1834,0.1841,0.1814,0.1818,0.1811,0.1802,0.1819,0.1822,0.1808,0.1839,0.1824,0.183,0.1814,0.1825,0.1832,0.1839,0.1752,0.1752,0.1752,0,0,0.1816,0.1827,0.1827,0.1836,0.1848,0.1853,0.1857,0.1856,0.186,0.1867,0.1856,0.1864,0.1854,0.186,0.1861,0.1902,0.1873,0.19,0.1931,0.1945,0.1951,0.1957,0.1961,0.1966,0.1909,0.1909,0.1909,0,0.1815,0.1817,0.183,0.1835,0.1842,0.1861,0.1863,0.188,0.1879,0.1882,0.1876,0.1877,0.1873,0.19,0.1921,0.1917,0.1916,0.1902,0.1955,0.1959,0.1963,0.1966,0.1971,0.1913,0.1912,0.1912,0.1911,0,0.1814,0.1819,0.1828,0.1841,0.1853,0.1868,0.1892,0.1904,0.191,0.1916,0.1935,0.1941,0.1937,0.1951,0.195,0.1984,0.1971,0.196,0.1933,0.1976,0.1976,0.198,0.1918,0.1917,0.1916,0.1915,0,0,0.1791,0.1817,0.1817,0.1824,0.1857,0.1866,0.1899,0.1921,0.1932,0.1952,0.1959,0.1991,0.1991,0.1992,0.2001,0.2023,0.2066,0.201,0.2009,0.2015,0.2093,0.2029,0.2027,0.207,0.2071,0.2072,0.2087,0,0.1781,0.1788,0.1803,0.1819,0.1829,0.1861,0.1884,0.1913,0.1937,0.1955,0.1989,0.2001,0.2014,0.2018,0.2047,0.2055,0.2076,0.2062,0.2049,0.2048,0.1987,0.2029,0.1834,0.1826,0.209,0.209,0.209,0,0.1762,0.1772,0.1778,0.1807,0.1812,0.1825,0.1861,0.1884,0.1932,0.1948,0.1981,0.2,0.2049,0.2044,0.2093,0.2086,0.2091,0.2098,0.2099,0.2009,0.199,0.1822,0.1822,0.2096,0.2095,0.2095,0.2095,0,0.1734,0.1752,0.1758,0.1768,0.1804,0.181,0.1831,0.1874,0.1895,0.1943,0.1955,0.2014,0.2033,0.2067,0.2093,0.2097,0.2128,0.2133,0.2079,0.2075,0.1887,0.1864,0.2151,0.2151,0.2151,0.2151,0.2151,0,0.1716,0.1719,0.1744,0.1748,0.1756,0.1786,0.18,0.1829,0.187,0.1895,0.1949,0.1974,0.2039,0.2068,0.2095,0.2095,0.2131,0.2081,0.2075,0.1908,0.1889,0.2097,0.2091,0.2152,0.2152,0.2151,0.2151,0,0.1684,0.1703,0.1711,0.1738,0.1744,0.1749,0.1781,0.1794,0.1834,0.1867,0.1883,0.195,0.1987,0.2033,0.2077,0.2078,0.2093,0.2076,0.1873,0.1842,0.2033,0.203,0.2031,0.2029,0.2027,0.2026,0.2024,0,0.1666,0.1668,0.1694,0.1698,0.1708,0.172,0.173,0.1773,0.1791,0.185,0.1863,0.1906,0.1939,0.1975,0.1941,0.195,0.2039,0.1799,0.1771,0.2027,0.2021,0.2021,0.2021,0.1558,0.1553,0.1549,0.1546,0,0.1629,0.1642,0.165,0.1661,0.1669,0.1681,0.1699,0.171,0.1761,0.1787,0.183,0.1859,0.1849,0.1757,0.174,0.1733,0.1786,0.1717,0.2027,0.1623,0.1583,0.1577,0.1592,0.151,0.1513,0.1516,0.1518,0.1519,0.1594,0.1595,0.1608,0.1614,0.1625,0.1632,0.1622,0.1628,0.1645,0.1626,0.1721,0.1664,0.1649,0.1508,0.1467,0.1419,0.156,0.1515,0.1527,0.1543,0.1489,0.1449,0.134,0.1343,0.1345,0.1347,0.1349,0,0.1527,0.1549,0.1556,0.1558,0.1535,0.1578,0.1589,0.1533,0.1499,0.1482,0.1471,0.131,0.1219,0.1217,0.1064,0.1078,0.1064,0.1067,0.1025,0.1061,0.1093,0.1016,0.0742,0.074,0.0739,0.0738,0,0,0.1492,0.1475,0.1484,0.1448,0.1462,0.1399,0.1394,0.1325,0.1274,0.1173,0.1098,0.111,0.1158,0.0913,0.0888,0.079,0.0927,0.0761,0.1242,0.1227,0.1257,0.1339,0.1259,0,0,0,0,0]},{"header":{"parameterUnit":"m.s-1","parameterCategory":2,"la1":30.2991,"la2":30.254,"lo1":-89.0895,"lo2":-89.0444,"dy":0.0017,"dx":0.0017,"nx":28,"ny":28,"refTime":"2024-04-20T09:00:00:Z","depth":"2","parameterNumber":3,"parameterNumberName":"V-component_of_CURRENTS"},"data":[0,0,0,0,0,0,0,0,0,0,0,0,0,0,0,0,0,0,0,0,0,0,0,0,0,0,0,0,0,0,0,0,0,0,0,0,0,0,0,0,0,0,0,0,0,0,0,0,0,0,0,0,0,0,0,0,0,0,-0.0302,-0.0303,0,-0.0343,-0.0343,-0.0343,-0.0392,-0.0393,-0.0394,-0.0394,-0.0422,-0.0422,-0.0421,0,0,0,0,0,0,0,0,0,0,0,0,0,-0.0236,-0.0237,-0.0302,-0.0303,-0.0304,-0.0343,-0.0343,-0.0343,-0.0392,-0.0393,-0.0394,-0.0395,-0.0422,-0.0422,-0.0421,0,0,0,0,0,0,0,0,0,0,0,0,0,-0.0268,-0.0238,-0.0302,-0.0333,-0.0337,-0.0342,-0.0343,-0.0344,-0.0391,-0.0393,-0.0394,-0.0395,-0.0422,-0.0422,-0.0421,-0.0395,0,0,-0.0421,-0.0421,0,0,0,0,0,0,0,0,-0.0267,-0.0271,-0.0328,-0.0331,-0.0335,-0.0365,-0.033,-0.036,-0.0391,-0.0369,-0.0394,-0.0396,-0.0401,-0.0403,-0.0406,-0.0396,-0.0397,-0.0421,-0.0421,-0.0421,-0.0421,0,0,0,0,0,0,0,-0.0264,-0.0269,-0.0317,-0.0329,-0.0333,-0.0335,-0.0341,-0.0336,-0.0376,-0.0371,-0.0375,-0.0381,-0.0403,-0.0406,-0.0407,-0.0398,-0.0421,-0.0421,-0.0421,-0.0421,-0.0393,-0.0392,0,0,0,0,0,0,-0.0262,-0.0267,-0.0316,-0.0318,-0.0305,-0.0335,-0.0342,-0.0353,-0.0377,-0.0382,-0.038,-0.0383,-0.0406,-0.0407,-0.0408,-0.0393,-0.0421,-0.0421,-0.0421,-0.0393,-0.0392,-0.0392,0,0,0,0,0,0,-0.0261,-0.0266,-0.0314,-0.0294,-0.0301,-0.0335,-0.0347,-0.0353,-0.0353,-0.0384,-0.0389,-0.0374,-0.0407,-0.0408,-0.0412,-0.0394,-0.0421,-0.0421,-0.0394,-0.0393,-0.0392,-0.0352,0,0,0,0,0,0,-0.0259,-0.0266,-0.0262,-0.0294,-0.0302,-0.0311,-0.0346,-0.0353,-0.0356,-0.036,-0.038,-0.0385,-0.0408,-0.0412,-0.0411,-0.0394,-0.0421,-0.0395,-0.0394,-0.0392,-0.0354,-0.035,-0.0346,0,0,0,0,0,-0.0256,-0.0249,-0.0262,-0.0267,-0.03,-0.031,-0.0313,-0.0341,-0.0354,-0.0347,-0.0372,-0.0384,-0.0403,-0.0411,-0.0411,-0.0393,-0.0395,-0.0394,-0.0392,-0.0356,-0.035,-0.0346,0,0,0,0,0,0,-0.0224,-0.0255,-0.0269,-0.0274,-0.0287,-0.0318,-0.0317,-0.0329,-0.034,-0.035,-0.0375,-0.038,-0.0379,-0.0387,-0.0394,-0.0381,-0.04,-0.0399,-0.0372,-0.0367,-0.0363,-0.035,-0.042,0,0,0,0,0,-0.0213,-0.0213,-0.0245,-0.0245,-0.0254,-0.0279,-0.0284,-0.0303,-0.0323,-0.0329,-0.034,-0.0356,-0.037,-0.0371,-0.0382,-0.0366,-0.0381,-0.0355,-0.0351,-0.0347,-0.0336,-0.0355,-0.0352,-0.0387,-0.0387,-0.0387,0,0,-0.0199,-0.0216,-0.0216,-0.0236,-0.0253,-0.0254,-0.0285,-0.0293,-0.0286,-0.0328,-0.0316,-0.034,-0.0364,-0.0361,-0.0359,-0.0366,-0.0343,-0.0345,-0.0342,-0.0333,-0.0353,-0.035,-0.0347,-0.0386,-0.0386,-0.0386,0,0,-0.0165,-0.019,-0.0176,-0.0187,-0.0208,-0.0228,-0.0225,-0.0248,-0.0252,-0.025,-0.0283,-0.0295,-0.0302,-0.0319,-0.033,-0.0302,-0.0325,-0.0303,-0.0266,-0.0284,-0.0282,-0.028,-0.0289,-0.0289,-0.0296,-0.0296,-0.0296,0,-0.0144,-0.0143,-0.0171,-0.0164,-0.0169,-0.0212,-0.0199,-0.0208,-0.0223,-0.0219,-0.0242,-0.0262,-0.0282,-0.0283,-0.0283,-0.0291,-0.0306,-0.0285,-0.0279,-0.0278,-0.0276,-0.0287,-0.0286,-0.0294,-0.0294,-0.0295,-0.0295,0,-0.0105,-0.0105,-0.0101,-0.0109,-0.0111,-0.0113,-0.0136,-0.013,-0.0146,-0.0161,-0.0162,-0.0199,-0.0211,-0.022,-0.0246,-0.0239,-0.0254,-0.0277,-0.0293,-0.027,-0.0283,-0.0283,-0.0291,-0.0292,-0.0293,-0.0293,0,0,-0.0062,-0.0069,-0.0068,-0.0063,-0.0086,-0.0085,-0.0072,-0.0073,-0.0062,-0.0086,-0.0069,-0.0105,-0.0132,-0.0145,-0.0176,-0.0193,-0.02,-0.0226,-0.0228,-0.0236,-0.0237,-0.0255,-0.0257,-0.0228,-0.0228,-0.0228,-0.0249,0,-0.0024,0.0003,-0.0009,0.0014,0.0018,-0.0008,0.001,0.0004,-0.001,-0.0005,-0.0048,-0.0056,-0.0102,-0.0112,-0.0135,-0.0184,-0.0199,-0.0191,-0.0257,-0.0258,-0.0277,-0.0257,-0.0179,-0.0192,-0.0249,-0.0249,-0.0249,0,0.0014,0.0025,0.0059,0.0068,0.007,0.0082,0.0096,0.0106,0.0094,0.0084,0.0062,0.0021,-0.0003,-0.0051,-0.0115,-0.0111,-0.0165,-0.0208,-0.021,-0.0239,-0.0276,-0.0225,-0.0191,-0.025,-0.025,-0.025,-0.025,0,0.005,0.007,0.01,0.0101,0.0108,0.0131,0.0136,0.0135,0.015,0.0139,0.014,0.0094,0.0074,0.0003,-0.0088,-0.0103,-0.0163,-0.0196,-0.026,-0.0262,-0.0212,-0.021,-0.024,-0.024,-0.024,-0.024,-0.024,0,0.0083,0.0104,0.012,0.0133,0.0174,0.0169,0.0208,0.0211,0.0217,0.0231,0.0185,0.0184,0.0083,0.003,-0.0058,-0.0153,-0.014,-0.0244,-0.0267,-0.0196,-0.0193,-0.0259,-0.0261,-0.0241,-0.024,-0.024,-0.024,0,0.011,0.0119,0.0152,0.0177,0.0189,0.0218,0.0249,0.0273,0.0277,0.0298,0.0296,0.0254,0.0187,0.0087,-0.0024,-0.0109,-0.0201,-0.024,-0.0147,-0.0159,-0.0294,-0.0294,-0.0309,-0.0309,-0.031,-0.0311,-0.0311,0,0.0125,0.0147,0.0186,0.0208,0.0221,0.0259,0.0286,0.0302,0.0326,0.0336,0.035,0.03,0.0264,0.0111,-0.0008,-0.014,-0.0202,-0.0197,-0.0219,-0.028,-0.0301,-0.0299,-0.0298,-0.0132,-0.0131,-0.013,-0.0129,0,0.0154,0.017,0.0197,0.0244,0.0278,0.0314,0.0353,0.0384,0.0401,0.0422,0.0428,0.0403,0.0291,0.0194,0.0023,-0.0068,-0.0169,-0.0187,-0.026,-0.0137,-0.0118,-0.0137,-0.014,-0.0121,-0.0122,-0.0123,-0.0123,-0.0124,0.0177,0.02,0.0237,0.0278,0.0318,0.0361,0.0388,0.0458,0.0505,0.0561,0.0507,0.05,0.0382,0.0204,0.0057,-0.0094,-0.0117,-0.0187,-0.0187,-0.0189,-0.0175,-0.0159,-0.0167,-0.0168,-0.0169,-0.017,-0.0171,0,0.0213,0.0222,0.0264,0.0312,0.0372,0.0365,0.0423,0.0497,0.058,0.0624,0.0645,0.0555,0.0441,0.0279,0.0093,-0.0057,-0.0049,-0.013,-0.0075,-0.008,-0.0085,-0.0066,-0.0029,-0.003,-0.003,-0.0031,0,0,0.0229,0.0275,0.0292,0.0365,0.038,0.047,0.0497,0.0612,0.0684,0.0761,0.0751,0.0722,0.0506,0.0387,0.0215,0.0091,0.0029,0.0064,-0.0025,0.0059,0.0054,-0.0085,-0.0057,0,0,0,0,0]}],[{"header":{"parameterUnit":"m.s-1","parameterCategory":2,"la1":30.2991,"la2":30.254,"lo1":-89.0895,"lo2":-89.0444,"dy":0.0017,"dx":0.0017,"nx":28,"ny":28,"refTime":"2024-04-20T09:00:00:Z","depth":"4","parameterNumber":2,"parameterNumberName":"U-component_of_CURRENTS"},"data":[0,0,0,0,0,0,0,0,0,0,0,0,0,0,0,0,0,0,0,0,0,0,0,0,0,0,0,0,0,0,0,0,0,0,0,0,0,0,0,0,0,0,0,0,0,0,0,0,0,0,0,0,0,0,0,0,0,0,0.0877,0.0878,0,0.0885,0.0885,0.0885,0.0893,0.0893,0.0894,0.0894,0.0922,0.0922,0.0922,0,0,0,0,0,0,0,0,0,0,0,0,0,0.0883,0.0883,0.0877,0.0878,0.0878,0.0885,0.0885,0.0885,0.0893,0.0893,0.0894,0.0894,0.0922,0.0922,0.0922,0,0,0,0,0,0,0,0,0,0,0,0,0,0.0881,0.0883,0.0877,0.0885,0.0887,0.0885,0.0885,0.0885,0.0892,0.0893,0.0894,0.0894,0.0922,0.0922,0.0922,0.0912,0,0,0.0924,0.0924,0,0,0,0,0,0,0,0,0.0882,0.0881,0.0884,0.0885,0.0886,0.0892,0.0898,0.0896,0.0892,0.0886,0.0894,0.0895,0.0916,0.0917,0.0911,0.0914,0.0915,0.0924,0.0924,0.0925,0.0925,0,0,0,0,0,0,0,0.0882,0.0881,0.0877,0.0884,0.0886,0.0894,0.0894,0.0897,0.0895,0.0887,0.0888,0.0895,0.0916,0.091,0.0912,0.0915,0.0924,0.0924,0.0925,0.0925,0.0979,0.098,0,0,0,0,0,0,0.0886,0.088,0.0876,0.0877,0.089,0.0894,0.0894,0.0886,0.0894,0.0897,0.0894,0.0895,0.0909,0.0911,0.0913,0.0986,0.0925,0.0925,0.0925,0.0978,0.098,0.0981,0,0,0,0,0,0,0.0886,0.0885,0.0876,0.0883,0.0883,0.0893,0.0885,0.0886,0.0909,0.09,0.0903,0.092,0.091,0.0912,0.0951,0.0984,0.0925,0.0926,0.0977,0.0979,0.098,0.1077,0,0,0,0,0,0,0.0886,0.0885,0.09,0.0883,0.0883,0.0892,0.0885,0.0886,0.0912,0.0914,0.0922,0.0924,0.0911,0.095,0.0951,0.0983,0.0926,0.0975,0.0978,0.098,0.1072,0.1082,0.109,0,0,0,0,0,0.0886,0.0896,0.09,0.0901,0.0896,0.0893,0.0894,0.0901,0.0913,0.0924,0.0943,0.0925,0.0964,0.0952,0.0953,0.0986,0.0974,0.0977,0.0979,0.1068,0.108,0.109,0,0,0,0,0,0,0.0906,0.0897,0.0901,0.0909,0.0912,0.0896,0.0914,0.0919,0.094,0.0961,0.0946,0.095,0.0992,0.0974,0.0961,0.1005,0.0963,0.0966,0.103,0.1041,0.105,0.1045,0.0926,0,0,0,0,0,0.0918,0.0927,0.0915,0.0929,0.0929,0.0928,0.0937,0.0948,0.0957,0.0968,0.0976,0.0987,0.0997,0.101,0.1013,0.1043,0.1021,0.1061,0.107,0.1077,0.1073,0.108,0.1089,0.0989,0.0989,0.0989,0,0,0.0934,0.0931,0.0939,0.0936,0.0937,0.0945,0.0935,0.0961,0.0983,0.0968,0.1014,0.1023,0.1011,0.1046,0.1063,0.1042,0.1096,0.1081,0.1087,0.1078,0.1083,0.1093,0.1102,0.0991,0.0991,0.099,0,0,0.0963,0.0962,0.0978,0.098,0.0998,0.0989,0.1004,0.1012,0.103,0.1075,0.1069,0.1101,0.1119,0.1116,0.1115,0.1171,0.1142,0.1176,0.1221,0.1229,0.1238,0.1245,0.1239,0.1244,0.1181,0.1182,0.1182,0,0.099,0.0995,0.0986,0.1,0.1009,0.101,0.103,0.1042,0.1072,0.1091,0.1106,0.1145,0.1146,0.117,0.1197,0.1192,0.1189,0.1187,0.1242,0.1248,0.1254,0.1246,0.1251,0.1187,0.1186,0.1186,0.1185,0,0.1017,0.1034,0.1042,0.1053,0.1063,0.1082,0.109,0.1121,0.1152,0.1162,0.1216,0.1229,0.1249,0.1258,0.1251,0.129,0.1273,0.1254,0.1218,0.127,0.1258,0.1261,0.1194,0.1192,0.119,0.1189,0,0,0.1029,0.1058,0.1062,0.1075,0.1095,0.1097,0.1142,0.1161,0.1188,0.1239,0.1273,0.1313,0.1331,0.133,0.1331,0.1342,0.1391,0.1328,0.1326,0.1326,0.1408,0.13,0.1293,0.1393,0.1394,0.1395,0.1388,0,0.1051,0.1082,0.1095,0.1127,0.1133,0.1154,0.1183,0.1215,0.1245,0.1278,0.1308,0.1339,0.1353,0.1379,0.1402,0.139,0.1403,0.1393,0.1353,0.1351,0.1252,0.1294,0.1398,0.139,0.1391,0.1392,0.1392,0,0.1056,0.1076,0.1114,0.1149,0.1155,0.1184,0.1219,0.1252,0.1294,0.1325,0.1374,0.1388,0.1432,0.1428,0.1456,0.1456,0.1446,0.143,0.1429,0.1292,0.1248,0.1323,0.1397,0.1397,0.1397,0.1396,0.1396,0,0.103,0.1079,0.1108,0.1119,0.1164,0.12,0.1228,0.1272,0.1298,0.1354,0.1381,0.1432,0.146,0.1474,0.1474,0.1475,0.1478,0.1467,0.1353,0.1345,0.1402,0.1394,0.1472,0.1472,0.1472,0.1472,0.1472,0,0.1013,0.1037,0.1103,0.1114,0.1154,0.1196,0.1241,0.1278,0.1331,0.1351,0.141,0.1428,0.1476,0.1486,0.1484,0.1431,0.1493,0.1359,0.1337,0.1443,0.144,0.1404,0.1396,0.1471,0.1471,0.1471,0.1471,0,0.0968,0.1012,0.1047,0.1116,0.114,0.117,0.1241,0.1265,0.1328,0.1359,0.1381,0.1435,0.1445,0.1464,0.1465,0.1421,0.1386,0.1345,0.1456,0.144,0.1245,0.1243,0.122,0.1216,0.1212,0.121,0.1207,0,0.0943,0.0959,0.1038,0.1062,0.11,0.1152,0.1183,0.1255,0.1275,0.1345,0.1347,0.1381,0.1404,0.1323,0.1354,0.1324,0.1302,0.1276,0.1264,0.124,0.1221,0.1223,0.1225,0.1202,0.1201,0.1201,0.12,0,0.0894,0.0937,0.0967,0.1016,0.1059,0.1094,0.1146,0.1152,0.1223,0.129,0.1275,0.1263,0.1256,0.1249,0.1227,0.1208,0.1294,0.1242,0.1248,0.1237,0.1219,0.1203,0.1209,0.1188,0.119,0.1191,0.1192,0,0.0861,0.0871,0.0918,0.095,0.1002,0.1016,0.1055,0.1073,0.1099,0.1177,0.1165,0.1198,0.1244,0.1186,0.1174,0.1141,0.1118,0.1077,0.1091,0.1104,0.1067,0.1026,0.0916,0,0,0,0,0,0.0814,0.0813,0.0845,0.0872,0.0923,0.0947,0.1014,0.1054,0.1121,0.1079,0.1118,0.1106,0.1071,0.1087,0.1026,0.1113,0.1124,0.1037,0.1086,0.1125,0.1139,0.1103,0,0,0,0,0,0,0.0779,0.0803,0.0813,0.0798,0.0802,0.0841,0.088,0.0934,0.0914,0.0988,0.0976,0.1025,0.1012,0.1086,0.0999,0.1002,0.1006,0.1059,0.1055,0.1118,0.113,0.114,0.1109,0,0,0,0,0]},{"header":{"parameterUnit":"m.s-1","parameterCategory":2,"la1":30.2991,"la2":30.254,"lo1":-89.0895,"lo2":-89.0444,"dy":0.0017,"dx":0.0017,"nx":28,"ny":28,"refTime":"2024-04-20T09:00:00:Z","depth":"4","parameterNumber":3,"parameterNumberName":"V-component_of_CURRENTS"},"data":[0,0,0,0,0,0,0,0,0,0,0,0,0,0,0,0,0,0,0,0,0,0,0,0,0,0,0,0,0,0,0,0,0,0,0,0,0,0,0,0,0,0,0,0,0,0,0,0,0,0,0,0,0,0,0,0,0,0,0.0296,0.0296,0,0.03,0.03,0.03,0.0342,0.0343,0.0343,0.0344,0.0398,0.0399,0.0399,0,0,0,0,0,0,0,0,0,0,0,0,0,0.0287,0.0287,0.0296,0.0296,0.0296,0.03,0.03,0.03,0.0342,0.0343,0.0344,0.0345,0.0398,0.0399,0.04,0,0,0,0,0,0,0,0,0,0,0,0,0,0.0293,0.0287,0.0296,0.0315,0.0317,0.03,0.03,0.03,0.0341,0.0343,0.0344,0.0345,0.0398,0.0399,0.04,0.0379,0,0,0.0402,0.0403,0,0,0,0,0,0,0,0,0.0292,0.0293,0.0313,0.0314,0.0316,0.032,0.0317,0.0329,0.0341,0.0334,0.0344,0.0346,0.0375,0.0378,0.0377,0.0382,0.0384,0.0403,0.0403,0.0404,0.0404,0,0,0,0,0,0,0,0.0292,0.0293,0.0299,0.0312,0.0314,0.0311,0.0314,0.0319,0.0349,0.0335,0.0337,0.0335,0.0376,0.0376,0.0379,0.0385,0.0403,0.0403,0.0404,0.0404,0.0397,0.0396,0,0,0,0,0,0,0.0288,0.0293,0.0299,0.0299,0.0305,0.031,0.0314,0.0319,0.0348,0.0353,0.0333,0.0336,0.0374,0.0378,0.0381,0.0384,0.0404,0.0404,0.0405,0.0398,0.0397,0.0396,0,0,0,0,0,0,0.0288,0.0289,0.0299,0.0294,0.0295,0.0309,0.0315,0.0318,0.0322,0.0346,0.0353,0.0334,0.0375,0.038,0.0396,0.0386,0.0405,0.0406,0.0398,0.0397,0.0396,0.0374,0,0,0,0,0,0,0.0288,0.0289,0.0292,0.0294,0.0295,0.0296,0.0313,0.0317,0.0318,0.0322,0.0349,0.0355,0.0376,0.0394,0.0397,0.0387,0.0406,0.0399,0.0398,0.0397,0.0376,0.0372,0.037,0,0,0,0,0,0.0288,0.0293,0.0292,0.0293,0.0299,0.0296,0.0296,0.0311,0.0316,0.0319,0.034,0.0355,0.0387,0.0395,0.0398,0.0388,0.04,0.0398,0.0397,0.0377,0.0373,0.037,0,0,0,0,0,0,0.0293,0.0297,0.0297,0.0304,0.03,0.0302,0.0306,0.0305,0.032,0.0329,0.035,0.0358,0.0366,0.0376,0.0384,0.038,0.0393,0.0392,0.0377,0.0373,0.037,0.0376,0.0407,0,0,0,0,0,0.0292,0.0297,0.0294,0.0298,0.0297,0.0296,0.0296,0.0302,0.0313,0.032,0.0333,0.0347,0.0357,0.0366,0.0377,0.0376,0.037,0.0368,0.0365,0.0363,0.0368,0.0345,0.0341,0.039,0.039,0.039,0,0,0.0291,0.0296,0.0297,0.0299,0.03,0.0297,0.0301,0.0302,0.0305,0.0323,0.0334,0.0338,0.0354,0.0359,0.0362,0.0369,0.0342,0.036,0.0358,0.0365,0.0343,0.0338,0.0334,0.0389,0.0389,0.0389,0,0,0.0291,0.03,0.0301,0.0298,0.0297,0.03,0.0297,0.0294,0.0303,0.0304,0.0317,0.0315,0.0329,0.0336,0.0343,0.0323,0.0325,0.0322,0.0314,0.0291,0.0287,0.0284,0.0256,0.0251,0.0321,0.0321,0.0321,0,0.0289,0.0296,0.0299,0.0297,0.03,0.0299,0.0298,0.0301,0.0303,0.0305,0.031,0.0309,0.0318,0.0321,0.0316,0.0317,0.0305,0.0329,0.0287,0.0284,0.0281,0.0254,0.0248,0.032,0.032,0.032,0.032,0,0.0286,0.0292,0.0294,0.0297,0.0296,0.03,0.03,0.03,0.0303,0.0298,0.0296,0.0299,0.0301,0.0292,0.0303,0.0281,0.0279,0.0285,0.0299,0.0274,0.0247,0.0241,0.0318,0.0319,0.0319,0.0319,0,0,0.029,0.0292,0.0295,0.0301,0.0301,0.0306,0.0307,0.0309,0.0312,0.03,0.0299,0.0292,0.0284,0.029,0.0288,0.0265,0.0222,0.0266,0.0265,0.0242,0.0167,0.0179,0.0173,0.0222,0.0221,0.022,0.0153,0,0.0292,0.0298,0.0296,0.0306,0.0313,0.0313,0.0317,0.0315,0.0315,0.0312,0.0299,0.0299,0.0288,0.0288,0.0261,0.0242,0.0208,0.024,0.0193,0.0191,0.0207,0.0168,0.0218,0.0148,0.0147,0.0146,0.0145,0,0.0298,0.0305,0.0316,0.0326,0.0328,0.0333,0.0348,0.0348,0.0338,0.0335,0.0319,0.031,0.0283,0.0276,0.0215,0.0237,0.0199,0.0172,0.0169,0.0188,0.0192,0.0181,0.0135,0.0136,0.0136,0.0137,0.0138,0,0.0323,0.0325,0.0342,0.0344,0.0348,0.0357,0.0362,0.0357,0.0366,0.0351,0.035,0.0314,0.0306,0.0251,0.02,0.0205,0.0128,0.0129,0.0096,0.0096,0.0118,0.0123,0.0071,0.0071,0.0071,0.0071,0.0072,0,0.0339,0.0354,0.0359,0.037,0.0393,0.0383,0.0405,0.04,0.0397,0.0405,0.0368,0.0366,0.0299,0.0253,0.0197,0.0131,0.0122,0.0087,0.0079,0.0108,0.0112,0.0113,0.0118,0.0069,0.0069,0.007,0.007,0,0.0369,0.037,0.0393,0.0402,0.041,0.0429,0.0444,0.0455,0.0442,0.0452,0.0449,0.0404,0.0344,0.027,0.0181,0.0136,0.0067,0.0043,0.0073,0.0068,0.0047,0.0052,-0.0006,-0.0006,-0.0006,-0.0006,-0.0006,0,0.0385,0.0401,0.0426,0.0445,0.0455,0.0478,0.0495,0.0488,0.0498,0.0478,0.0485,0.043,0.0392,0.0271,0.019,0.0073,0.006,0.0013,0.003,0.0041,0.0038,0.0044,0.0049,-0.0007,-0.0007,-0.0007,-0.0007,0,0.0417,0.0431,0.045,0.049,0.0517,0.0538,0.0559,0.0569,0.0557,0.0546,0.0515,0.0448,0.0379,0.0281,0.0189,0.0107,0.004,0.0011,0.0011,0.0026,0.0039,0.0038,0.0044,-0.0007,-0.0007,-0.0007,-0.0007,0,0.0448,0.0469,0.0499,0.0534,0.0565,0.0588,0.0592,0.0594,0.0596,0.0566,0.0556,0.0472,0.042,0.0299,0.0217,0.0136,0.0116,0.0084,0.008,0.0079,0.013,0.016,0.0136,0,0,0,0,0,0.0474,0.0503,0.0538,0.0574,0.0601,0.0621,0.063,0.0626,0.0614,0.0599,0.0576,0.051,0.0383,0.0327,0.0249,0.0216,0.0103,0.0121,0.0066,-0.001,-0.0009,0.0037,0,0,0,0,0,0,0.0495,0.0533,0.0547,0.0597,0.0629,0.0659,0.0666,0.0655,0.0638,0.0613,0.0548,0.0499,0.038,0.0441,0.0256,0.023,0.0183,0.0059,0.0057,-0.001,-0.001,-0.0009,0.0038,0,0,0,0,0]}]]